Theta_e
309 308 309 308 308 308 308 308 308 308 309 308 309 308 308 308 308 308 307 307 307 307 307 307 307 307 309 312 313 314 314 314 313 314 316 317 314 316 318 317 317 316 314 312 315 317 315 314 314 313 316 318 318 320 318 321 330 331 328 322 324 329 329 333 334 326 320 324 326 322 319 318 320 320 315 313 315 317 316 318 319 316 315 312 311 311 312 312
309 308 308 308 308 308 308 308 308 308 308 308 308 308 308 308 308 308 308 307 307 307 307 307 307 307 308 310 313 314 314 314 314 315 316 316 315 316 318 318 316 315 313 312 315 316 317 318 314 315 321 321 320 318 319 321 323 329 330 324 327 332 331 332 331 324 319 319 321 323 320 317 319 319 315 315 320 318 316 318 317 317 316 313 309 309 310 310
309 309 308 308 308 308 308 308 308 308 308 308 308 308 308 308 308 308 308 307 307 307 307 307 307 308 308 310 313 314 315 317 319 321 319 318 318 317 318 318 316 314 313 312 315 316 318 318 313 316 321 320 322 321 323 322 321 330 328 324 332 333 328 328 325 321 320 317 319 321 318 316 318 317 314 316 319 319 318 316 316 318 318 319 313 307 308 308
309 309 309 309 309 308 308 308 308 308 308 308 308 308 308 308 308 308 308 308 308 307 307 307 307 308 308 311 313 314 316 317 318 321 319 318 319 318 319 319 317 314 312 312 316 318 316 315 313 316 319 320 325 324 325 325 323 327 323 325 334 328 323 325 323 322 321 317 318 320 316 317 318 316 316 317 317 317 316 315 316 319 317 320 316 307 306 307
310 310 310 309 309 309 309 308 308 308 308 308 308 308 308 308 308 308 308 308 308 308 308 307 308 307 308 312 314 315 316 313 314 319 318 317 317 318 320 319 316 313 311 312 316 316 314 313 313 317 318 320 323 322 328 328 322 324 322 324 327 322 320 322 324 322 320 317 317 319 317 317 317 315 317 317 317 316 316 317 316 317 317 319 316 308 306 306
311 311 311 310 310 310 310 309 309 309 309 309 309 309 309 308 309 308 308 308 308 308 308 308 308 308 309 313 314 315 314 310 314 319 317 316 316 318 319 317 313 310 310 313 314 313 315 315 315 320 319 319 321 321 325 324 319 322 323 322 321 319 318 319 321 320 318 317 316 317 316 316 316 316 319 318 316 315 317 321 319 317 314 312 312 308 308 309
312 311 311 311 311 310 310 310 310 310 309 309 309 310 310 310 309 309 309 309 308 308 308 309 309 308 310 313 316 319 319 315 316 316 316 316 315 316 317 314 311 310 310 313 314 314 318 318 317 321 320 319 322 321 320 319 319 322 323 322 321 319 319 319 318 318 318 317 317 316 314 315 316 316 317 316 315 314 315 320 321 315 309 309 313 311 311 310
312 312 311 311 311 310 310 310 310 310 310 310 310 310 310 310 310 310 310 310 309 309 308 308 309 310 311 315 319 324 323 319 314 315 316 315 316 316 315 313 310 310 311 312 313 315 318 319 319 320 319 320 321 320 319 317 320 322 323 322 320 319 319 319 317 317 317 316 316 315 315 315 316 315 314 315 315 314 313 316 317 315 312 313 316 314 311 309
312 312 312 311 310 310 310 310 310 309 309 309 309 310 310 310 310 310 310 310 310 310 309 308 309 311 313 315 317 320 320 317 316 318 319 316 316 314 313 312 310 310 311 312 313 313 316 319 321 319 319 321 319 319 319 318 322 323 322 321 318 317 317 316 316 316 316 316 315 315 316 315 314 315 314 315 314 313 314 315 314 314 316 316 315 314 311 311
314 313 312 311 310 311 311 311 310 309 309 308 308 308 308 308 308 308 309 309 309 310 310 309 309 312 314 314 315 316 316 317 319 320 320 318 315 313 313 312 311 310 310 312 312 312 315 318 318 317 318 320 317 317 318 319 320 320 318 318 317 316 316 315 315 315 313 315 316 315 316 315 314 314 314 316 315 315 315 316 314 313 314 314 313 313 310 310
315 315 314 313 313 312 312 312 311 310 309 309 309 308 308 308 308 307 307 307 308 308 309 310 309 311 314 315 316 316 315 317 317 317 319 318 315 313 313 311 311 310 311 312 312 312 313 314 315 315 316 317 316 317 317 317 316 315 315 317 317 315 315 315 314 315 313 314 317 314 314 315 313 313 314 315 315 316 316 317 316 314 314 312 311 311 310 310
316 316 315 315 314 313 313 313 312 311 310 310 310 310 310 310 309 308 308 307 306 306 308 309 308 310 315 317 317 315 314 316 316 315 316 316 315 314 312 311 311 311 311 311 312 313 312 313 315 316 317 316 315 316 316 315 314 314 315 316 317 315 315 315 314 315 314 315 317 315 315 316 314 315 316 314 314 314 315 316 316 315 314 312 311 310 310 309
317 316 316 315 315 314 313 313 312 311 311 310 310 311 311 311 310 309 308 308 306 306 307 309 309 310 314 319 317 314 313 314 315 315 315 315 314 314 313 311 312 313 313 311 313 315 315 315 315 317 317 315 317 316 313 313 314 315 315 315 315 316 316 315 315 315 314 314 316 315 315 318 318 316 315 314 313 312 314 315 314 314 313 312 312 311 311 309
316 315 315 315 315 313 312 312 312 311 310 310 310 311 311 311 311 310 309 308 307 306 307 309 311 312 316 319 316 314 315 314 315 315 315 314 313 313 313 312 313 313 313 312 313 315 315 315 315 315 314 315 317 314 314 317 318 316 314 315 316 316 317 315 314 316 315 314 315 315 315 317 317 315 316 314 312 312 315 315 314 313 312 311 311 311 311 310
315 315 315 315 314 312 311 312 311 310 309 309 310 310 311 311 311 310 309 309 307 306 308 311 312 314 317 319 315 314 316 314 315 315 315 315 313 313 313 313 313 312 312 311 312 313 313 314 314 315 315 314 313 313 319 323 323 320 315 317 319 317 316 315 314 315 315 314 312 314 317 316 315 316 316 314 312 313 314 315 314 313 312 311 310 310 311 310
315 315 315 314 313 311 311 311 310 309 309 308 309 310 310 310 310 310 310 309 308 306 308 312 314 315 316 315 314 315 315 315 316 315 315 314 313 313 313 312 312 312 312 311 312 312 313 313 313 315 316 314 314 318 321 321 325 325 316 316 319 318 316 316 317 317 315 314 312 313 317 317 316 316 316 314 313 314 314 314 313 312 311 311 310 310 310 311
315 315 315 314 312 311 311 310 310 310 309 308 308 308 309 309 309 309 310 309 309 309 310 314 315 314 313 312 313 315 314 315 316 316 315 314 313 313 313 312 311 311 311 311 312 312 312 313 312 315 317 316 318 321 319 318 321 320 316 317 318 317 315 315 319 319 314 314 314 313 314 315 316 317 317 315 314 314 314 315 314 311 311 310 311 311 310 310
315 315 315 314 312 312 311 311 311 311 310 309 308 309 309 309 310 311 310 311 312 311 312 316 314 312 314 314 314 316 315 314 315 315 314 313 312 314 313 312 311 310 311 312 312 313 312 315 316 317 318 317 316 317 318 317 316 315 317 319 319 317 315 315 316 316 314 314 315 314 312 313 313 314 314 314 313 313 313 314 313 311 311 311 312 312 311 311
315 315 315 315 314 314 314 313 313 312 310 309 308 310 311 313 314 312 311 314 316 314 313 315 315 313 315 317 315 315 316 315 315 314 313 313 314 314 313 312 312 313 314 314 314 314 315 318 320 318 317 315 314 314 315 315 314 314 315 316 318 317 314 314 314 314 315 314 314 314 313 313 312 312 313 312 312 312 312 312 311 311 311 311 311 312 312 312
315 315 315 316 315 315 316 315 313 312 310 310 310 312 317 321 320 316 314 317 318 316 316 315 316 316 315 317 317 316 316 315 315 315 312 313 314 314 313 312 314 315 315 319 319 316 315 318 320 318 316 315 314 314 313 314 313 313 314 314 316 315 312 313 312 313 314 313 314 315 313 313 313 313 312 312 313 313 312 312 311 311 310 311 311 312 312 312
315 316 316 316 316 316 317 316 314 313 312 311 311 315 319 317 315 316 316 317 314 310 314 314 313 315 314 314 315 316 318 316 314 315 313 312 313 315 315 313 315 316 317 322 321 315 313 316 318 316 315 314 314 314 313 313 313 313 314 314 314 314 313 312 312 313 313 313 314 314 314 313 313 313 312 313 313 313 313 312 312 312 311 311 311 311 311 311
315 316 316 316 316 316 317 317 315 315 314 313 313 314 312 309 310 311 309 314 314 308 311 313 310 312 312 311 313 314 316 316 315 315 313 311 312 315 315 314 317 317 317 319 317 315 315 315 315 314 314 314 314 314 314 313 313 314 314 314 314 314 313 312 313 314 312 313 316 317 315 313 313 313 312 312 313 312 313 312 313 313 312 311 311 311 311 311
316 316 316 316 316 316 317 317 316 317 315 313 312 311 309 307 308 308 308 314 318 313 312 313 311 312 312 311 312 313 314 314 315 317 314 311 311 314 314 314 316 317 317 317 315 317 318 317 314 312 313 314 314 315 314 313 313 315 315 315 315 313 313 314 315 317 314 313 317 317 313 311 311 312 311 311 311 311 312 312 312 312 313 312 312 312 312 312
316 316 316 316 316 317 317 317 317 317 315 313 311 310 308 307 307 309 312 316 317 316 314 311 309 311 313 311 310 313 314 313 314 315 313 311 311 313 313 314 315 315 316 315 315 316 316 317 316 314 313 314 315 315 315 315 314 315 316 315 314 314 314 313 314 317 315 313 315 314 312 312 313 312 311 311 311 311 311 311 311 311 312 312 312 313 313 313
317 317 317 316 316 316 316 317 318 317 316 313 311 310 309 307 306 308 311 315 317 318 314 309 309 311 311 310 311 313 312 312 314 315 312 310 311 312 312 312 313 315 314 313 315 314 313 316 317 316 317 316 316 316 317 319 316 314 316 316 314 314 314 315 315 315 315 317 316 315 315 316 317 316 313 313 313 313 312 312 311 312 311 312 312 312 312 313
320 318 317 317 317 316 317 318 317 317 316 313 311 311 309 307 307 307 310 315 318 319 316 312 311 311 310 310 312 313 312 312 313 313 311 310 311 312 313 312 312 313 313 314 313 312 313 315 315 318 321 320 317 317 319 319 315 315 320 321 317 315 315 316 316 315 319 322 317 316 318 317 317 318 317 317 316 314 314 314 312 312 312 312 312 312 312 312
323 321 319 318 317 317 318 319 318 318 318 316 314 311 309 309 307 307 311 318 320 319 317 314 311 311 311 311 311 312 315 314 312 311 311 311 311 312 312 312 312 312 313 315 314 314 314 313 315 317 318 320 318 317 318 317 315 316 321 326 323 319 319 318 318 319 321 320 316 317 319 318 316 316 319 319 317 315 315 315 314 312 312 311 311 311 311 312
326 325 322 319 318 317 317 318 317 317 319 318 314 309 309 309 307 308 313 321 323 318 316 314 311 311 312 310 310 312 312 311 313 312 308 308 310 312 312 312 313 314 314 315 314 315 316 315 317 317 315 318 317 316 317 316 316 318 320 322 322 321 321 320 319 322 322 317 316 318 319 319 317 316 318 316 315 316 315 315 314 313 313 312 312 312 311 312
326 325 325 322 319 318 317 317 317 318 320 319 313 309 309 307 307 311 317 321 320 316 315 313 310 311 313 311 311 313 310 310 312 311 308 309 310 310 312 312 311 313 314 314 313 314 316 316 317 318 317 316 315 318 320 318 317 319 319 319 323 327 325 321 319 320 324 320 318 319 318 318 317 316 317 314 314 316 314 313 313 313 314 314 313 313 312 313
325 324 325 323 320 318 317 317 318 320 320 318 312 309 309 310 310 315 322 323 319 315 313 312 312 313 313 313 314 314 312 311 311 310 311 311 311 311 311 310 312 317 318 315 315 314 312 312 313 317 317 316 317 318 316 317 316 316 318 321 325 328 327 327 326 322 321 319 318 321 320 317 317 318 318 315 315 316 313 313 314 312 314 314 314 313 313 314
324 323 323 322 319 319 318 318 319 321 320 316 312 310 312 315 315 321 327 323 319 319 313 312 313 313 314 315 317 315 312 313 311 312 313 311 312 314 312 310 314 321 322 316 315 315 312 311 314 319 320 319 318 314 312 315 316 316 322 324 323 326 326 327 327 321 318 318 320 322 319 316 316 317 317 317 317 317 313 313 315 315 315 314 314 313 312 313
322 323 322 321 320 320 319 319 319 320 319 315 313 315 318 321 319 323 327 322 323 323 317 317 315 314 316 314 316 318 314 314 313 313 316 315 315 315 313 315 316 318 322 320 318 319 316 313 314 316 317 318 317 316 318 318 315 316 322 321 319 323 322 322 324 321 319 320 319 317 316 315 315 317 316 315 318 320 316 313 314 315 317 318 319 318 314 313
322 322 322 321 321 319 320 320 319 319 319 316 317 320 322 324 325 325 324 324 326 322 317 320 317 315 317 315 320 323 315 315 315 311 314 314 314 316 315 317 318 315 319 320 320 322 321 317 313 312 313 316 317 316 318 318 316 316 319 320 320 321 320 321 325 323 318 320 318 314 315 316 316 320 319 314 314 317 316 315 313 314 318 321 322 321 317 317
320 320 321 321 320 320 320 320 318 319 317 316 320 323 322 324 328 326 324 325 325 319 317 320 317 316 316 316 324 323 314 318 317 311 313 313 313 318 318 315 314 315 317 316 318 322 320 318 316 315 317 318 315 314 317 321 318 314 317 320 318 322 326 325 326 323 318 323 322 314 316 320 317 318 321 318 315 317 317 316 314 311 313 316 316 317 318 320
317 318 319 320 320 320 320 319 318 317 316 316 319 322 323 326 327 325 327 328 324 320 319 318 317 318 319 320 326 323 315 318 318 313 315 315 316 322 323 317 312 314 316 315 319 320 317 319 319 315 317 317 314 314 317 322 319 314 319 321 315 321 326 320 321 321 316 320 322 316 319 323 317 315 318 319 318 318 316 315 314 313 314 315 314 318 318 318
314 316 318 318 319 320 320 319 317 315 316 318 320 321 323 326 328 326 327 324 319 319 322 320 319 321 323 324 325 324 316 315 317 315 315 315 317 320 321 319 313 312 313 315 321 321 316 321 320 313 313 315 314 314 315 318 318 315 316 318 315 318 320 316 320 322 317 316 317 317 319 320 317 316 315 314 315 314 314 316 317 317 316 315 315 316 314 316
312 315 317 318 318 319 319 319 317 315 315 318 321 322 322 324 327 327 325 319 316 319 321 322 321 321 324 325 326 325 320 317 316 316 317 317 317 318 318 319 314 311 311 314 321 322 317 319 320 316 316 315 311 313 315 315 314 316 318 317 315 317 318 318 321 323 320 317 317 317 317 314 316 318 315 314 315 315 317 318 316 315 315 314 314 313 312 318
311 315 316 317 317 317 319 318 315 314 315 318 321 323 323 323 323 323 321 318 318 320 321 324 324 324 324 324 324 323 320 319 318 317 320 319 317 318 318 318 316 312 311 311 316 321 317 316 318 319 318 314 310 312 316 313 310 315 318 316 316 318 319 319 319 319 318 317 317 317 316 314 314 316 315 315 317 316 317 316 314 315 316 315 315 314 313 319
311 315 316 316 316 316 318 317 314 313 316 319 321 322 322 322 320 320 319 318 319 321 322 325 326 325 325 324 324 322 319 319 320 321 322 321 320 319 317 316 316 313 312 312 313 317 317 316 318 318 315 313 311 313 318 316 313 312 313 313 315 317 319 320 320 320 318 317 318 318 317 316 317 319 317 315 317 317 317 317 317 319 317 314 314 315 313 316
311 314 316 317 317 318 317 315 314 315 318 320 321 321 321 321 320 321 320 318 319 320 320 323 324 323 324 322 321 322 321 318 319 321 322 322 322 320 317 316 315 314 314 314 314 316 317 317 317 317 316 314 313 316 318 319 317 314 313 315 314 314 318 318 317 318 317 316 316 317 317 315 316 320 319 316 318 317 314 314 318 320 318 316 315 315 314 313
312 314 316 317 317 317 315 314 315 317 319 320 320 319 319 319 320 320 318 317 319 319 318 321 323 322 322 322 320 320 320 320 320 320 319 320 321 320 318 315 314 315 317 318 317 316 317 318 317 316 316 315 315 318 318 318 317 315 314 314 314 314 317 317 316 317 317 316 316 316 317 316 314 316 315 314 315 313 311 312 315 318 319 318 318 318 317 315
312 315 316 316 316 315 314 316 317 316 318 319 319 319 318 317 318 319 318 317 318 318 317 319 321 321 320 321 320 320 321 322 322 320 319 319 320 320 320 317 315 317 318 319 320 317 315 316 316 317 317 317 317 317 316 315 314 314 314 314 314 314 314 316 317 317 316 317 316 315 316 316 313 314 313 313 313 312 312 312 312 314 315 314 316 317 317 316
312 314 314 315 315 314 315 318 317 316 317 316 316 318 317 317 319 318 317 317 317 318 318 318 318 318 319 318 319 320 320 320 321 321 320 319 318 318 318 317 316 318 319 320 322 321 316 315 317 318 319 319 319 318 316 312 310 312 314 315 314 314 314 315 315 315 316 317 317 318 317 317 316 316 314 313 313 313 312 312 312 312 312 312 313 313 313 314
309 311 313 314 314 313 316 320 318 316 316 315 315 316 315 316 317 317 317 317 317 318 319 318 318 318 318 318 318 319 320 319 319 320 320 319 319 318 317 316 316 317 319 322 323 322 319 319 320 319 319 320 321 320 318 314 311 313 317 317 315 315 314 315 315 315 316 316 316 318 317 317 317 317 314 313 313 312 312 312 312 312 311 311 312 313 313 313
306 309 312 313 313 312 315 318 318 317 317 316 316 316 315 315 315 316 316 316 316 318 318 318 318 318 318 318 318 318 318 319 319 320 319 319 320 320 318 317 317 317 317 319 321 321 320 320 321 320 321 322 321 321 322 320 314 313 317 317 315 315 316 315 315 315 315 316 316 317 316 316 316 315 314 313 313 313 312 312 313 313 312 311 310 312 313 314
305 308 309 311 312 312 314 315 316 316 316 316 316 316 316 316 315 314 315 315 315 315 316 317 317 317 317 318 318 318 317 318 318 319 319 319 319 319 318 318 317 317 317 318 318 318 317 317 319 319 320 321 320 320 322 321 316 314 316 316 314 315 315 314 314 315 316 316 316 316 316 316 316 315 315 314 313 313 313 313 313 313 313 311 310 310 312 312
304 305 307 310 312 313 313 314 315 315 315 316 316 315 315 316 315 315 314 314 314 314 314 315 315 315 317 317 317 317 317 316 316 317 317 318 319 318 317 317 316 316 317 316 316 315 314 315 318 318 317 318 318 318 318 318 317 316 317 316 315 315 315 315 315 314 315 316 316 316 316 316 316 315 315 314 313 313 313 313 313 313 314 313 311 311 311 310
302 303 305 307 308 311 312 312 313 314 315 314 314 314 314 315 315 315 314 314 314 314 314 314 314 315 316 315 316 316 316 317 317 316 315 314 313 314 314 314 314 315 315 314 314 314 313 315 317 317 317 317 317 317 317 317 317 317 316 316 316 316 316 316 315 314 314 316 316 316 316 316 316 315 315 314 313 313 313 313 313 312 313 313 312 312 311 310
300 301 303 303 303 305 306 306 306 309 310 310 311 312 313 314 314 314 314 315 314 313 314 315 314 313 311 310 311 312 313 315 313 312 311 307 306 308 310 312 313 312 311 311 312 312 314 315 316 316 316 316 316 316 316 316 316 316 316 316 316 316 317 316 316 315 315 315 315 315 316 316 315 314 314 314 313 313 313 312 312 312 312 312 312 313 311 309
298 300 301 301 301 301 301 301 302 304 306 308 310 311 311 312 313 312 312 313 312 313 314 313 310 307 306 306 307 308 308 307 305 305 305 303 303 305 306 308 310 308 306 309 311 311 312 314 315 316 316 315 316 316 316 316 316 315 316 315 315 316 317 316 316 315 315 316 315 315 315 315 314 313 313 312 312 313 312 312 312 312 312 312 311 311 309 307
297 298 299 300 300 300 301 302 303 303 304 306 308 309 310 311 310 308 307 308 310 311 310 308 304 303 304 304 305 306 305 302 301 302 303 302 302 303 303 304 305 305 305 308 310 310 311 312 313 315 316 316 316 316 315 314 314 314 315 315 315 316 316 316 316 315 316 316 316 315 316 315 313 312 312 312 312 312 312 312 312 311 311 309 307 305 304 303
296 297 298 299 299 299 299 301 302 302 302 304 305 306 307 307 304 304 306 307 307 306 303 301 301 302 302 303 304 303 301 300 300 300 301 302 302 302 302 303 303 304 306 308 308 309 310 311 312 314 315 315 315 315 314 314 315 315 315 315 314 315 315 315 315 315 315 315 315 316 316 314 313 312 312 312 312 312 311 311 309 307 305 302 301 301 300 300
Wind_Speed
10 10 10 10 10 10 10 10 10 9 9 9 9 9 10 10 10 10 10 11 11 11 11 11 11 11 9 8 8 7 7 8 10 9 10 12 11 8 6 5 6 7 7 6 7 7 4 3 6 6 3 1 0 1 1 1 2 3 3 2 3 3 4 5 6 4 3 4 5 4 4 7 5 4 1 1 1 3 3 4 4 4 1 2 0 4 14 28
10 11 11 11 11 11 11 11 10 10 10 9 9 9 9 9 10 10 10 11 11 11 11 12 12 12 10 9 9 8 7 8 8 11 14 15 14 12 10 8 7 8 8 8 9 9 6 3 5 6 3 1 1 0 1 1 2 2 3 2 4 6 5 5 6 4 3 4 5 5 4 6 6 4 1 2 6 4 4 6 3 5 5 2 4 11 21 29
12 12 12 12 12 12 12 12 11 11 11 10 10 10 10 10 9 10 10 10 11 12 12 13 13 12 10 9 8 8 7 6 5 8 8 7 9 13 13 11 9 8 9 9 9 9 7 5 7 7 3 1 2 1 1 1 2 2 3 2 6 7 6 5 6 7 6 4 4 6 3 4 7 3 2 3 7 6 8 8 4 7 11 5 5 12 20 25
12 13 13 13 13 13 13 13 13 13 12 12 11 11 10 10 10 9 10 10 11 12 12 13 14 13 10 8 7 7 6 4 3 3 3 5 2 5 11 13 11 9 9 9 8 8 7 5 7 6 3 1 3 1 2 3 3 2 4 5 7 5 4 8 8 8 7 4 4 4 1 3 6 3 3 3 5 10 10 9 9 11 13 9 7 11 18 20
13 13 13 14 14 14 14 15 15 15 14 14 13 12 11 11 10 10 10 10 10 11 12 12 13 13 9 7 6 6 4 4 3 2 3 4 4 1 9 12 12 10 9 10 9 8 7 5 5 3 2 2 2 2 3 6 3 1 5 8 7 4 4 9 6 6 5 3 3 3 3 5 3 2 5 6 7 13 7 7 12 13 13 10 12 13 15 15
13 13 13 14 14 15 15 15 15 16 15 15 15 14 13 12 11 11 10 10 10 11 12 12 13 12 8 6 5 3 1 1 4 4 4 4 3 2 7 11 12 11 10 11 10 7 6 4 4 2 2 1 3 4 5 4 4 3 6 6 7 6 6 8 4 4 3 2 5 5 4 2 2 5 5 8 15 17 7 7 11 13 12 11 13 14 14 14
14 14 14 14 14 14 15 15 15 15 16 16 16 15 15 14 13 13 12 11 11 11 11 11 13 11 6 4 3 3 2 5 8 7 9 6 3 4 7 11 12 11 11 12 9 6 4 4 3 4 3 1 3 6 5 2 4 5 6 5 7 7 9 9 6 5 2 5 8 3 4 2 5 7 2 8 19 19 10 6 8 10 8 9 12 14 16 17
14 14 14 14 13 13 14 14 15 15 16 16 16 16 16 15 15 14 14 13 11 11 11 11 12 9 5 2 1 3 1 8 12 9 10 7 5 6 9 11 12 12 12 14 12 7 5 5 5 3 2 4 4 4 4 1 1 6 8 5 4 5 7 9 6 7 6 7 6 3 8 8 9 4 5 16 24 17 9 7 8 7 5 8 11 15 15 16
14 14 15 15 14 13 13 14 14 15 15 15 15 15 16 15 15 15 15 15 13 12 11 11 10 6 4 1 4 2 4 7 9 8 8 7 7 8 10 11 13 14 13 13 13 9 6 5 6 5 4 4 4 4 3 1 4 7 8 5 4 6 8 7 7 9 7 5 3 3 13 11 6 3 8 22 25 13 7 10 10 8 7 9 11 13 15 15
15 16 16 15 14 14 14 14 14 14 14 14 15 14 15 15 14 14 14 15 14 12 11 10 9 5 4 1 4 2 7 5 6 7 7 8 10 10 13 13 13 15 13 10 11 11 7 7 6 4 4 2 4 4 3 4 4 4 5 5 7 8 9 6 7 9 5 4 6 7 16 12 3 2 9 20 13 2 6 9 9 8 10 12 10 11 13 14
15 17 17 16 17 16 16 15 15 14 14 14 14 14 14 14 13 13 13 15 14 12 11 10 8 6 4 3 4 5 7 6 7 8 8 10 12 13 14 15 14 16 14 8 10 13 10 8 6 5 1 2 2 3 3 5 2 1 2 7 10 7 9 10 9 9 2 4 8 10 13 10 1 3 13 21 7 5 3 7 7 7 10 11 11 11 9 11
15 18 18 18 19 19 18 17 15 15 15 15 15 14 13 13 13 13 13 14 13 11 11 10 8 7 4 2 6 12 11 10 11 10 10 12 14 14 13 15 15 15 15 10 8 11 10 7 6 5 4 1 1 2 3 3 1 2 2 6 13 7 10 16 9 6 5 3 6 9 6 8 4 10 18 21 7 2 5 8 9 9 10 10 9 10 8 12
16 17 17 19 21 20 19 17 16 17 17 17 17 16 14 14 14 14 14 14 13 10 10 9 8 7 4 2 8 14 18 17 15 14 14 14 14 14 14 15 15 14 14 11 6 5 5 6 7 6 3 2 2 2 1 1 2 4 2 1 9 7 9 13 2 2 4 4 6 8 3 8 10 16 19 17 8 3 7 11 12 10 10 10 9 8 9 12
16 17 17 19 21 20 18 16 17 18 19 19 19 18 16 15 14 14 14 15 13 9 9 6 6 7 4 5 7 9 15 16 17 18 17 16 14 13 14 15 14 13 12 10 6 2 2 4 5 3 1 3 3 4 3 5 3 3 2 1 3 3 9 9 4 4 2 3 7 7 3 10 13 16 15 12 7 5 8 13 13 11 10 9 9 9 10 11
16 16 18 19 20 19 17 16 17 19 20 21 21 21 19 16 15 15 15 16 12 8 6 4 8 7 2 7 8 7 11 12 17 23 20 18 16 11 11 14 12 10 9 7 4 2 3 4 4 2 2 2 1 3 4 4 3 1 2 4 2 4 8 12 4 6 7 4 4 6 4 9 16 17 12 7 5 7 10 13 12 12 11 10 9 9 11 11
15 16 17 18 17 16 15 15 17 19 21 22 23 23 19 17 15 15 16 14 11 7 5 5 10 8 1 5 4 5 9 11 15 19 19 19 17 11 8 10 8 5 5 3 3 3 5 4 2 2 1 2 2 2 3 4 5 2 3 6 5 5 4 8 8 6 8 3 3 6 6 6 12 15 9 3 5 8 9 12 12 13 12 11 9 8 10 11
13 14 15 16 15 15 14 16 18 19 21 22 23 22 19 16 15 14 11 6 3 5 7 5 7 5 1 3 3 5 9 14 15 13 16 19 17 12 8 6 4 6 6 4 4 4 2 2 1 0 1 2 2 5 3 3 6 4 3 5 5 6 4 3 8 6 4 6 6 9 9 11 14 15 11 4 5 7 7 11 12 11 10 9 8 10 10 11
11 12 13 14 15 15 16 18 18 19 21 21 21 21 17 10 7 5 3 8 8 7 4 1 4 3 4 5 5 5 5 10 11 10 15 17 15 13 8 5 5 7 6 3 2 2 1 1 2 1 2 3 3 5 4 8 9 7 5 5 4 5 6 6 8 4 2 5 8 8 10 15 17 17 16 11 6 7 10 11 11 10 10 10 9 10 11 11
10 11 12 13 15 16 17 19 18 18 20 22 20 14 8 3 3 4 7 9 7 5 2 3 5 3 4 7 6 4 2 6 7 9 13 13 12 11 7 5 6 7 5 1 2 2 2 3 3 2 5 8 7 8 12 14 12 10 7 5 5 6 6 8 11 7 4 6 8 10 13 15 17 18 19 16 11 11 14 11 10 11 11 11 11 12 13 14
9 10 12 13 14 16 18 19 16 17 21 24 21 10 2 4 3 3 2 2 5 5 2 5 8 4 4 3 3 4 4 6 6 6 12 13 11 10 4 3 5 4 3 5 4 2 4 4 3 7 11 12 10 12 16 16 11 7 5 6 7 8 8 9 13 11 5 5 9 12 16 17 16 18 19 15 11 12 15 14 13 13 12 12 13 15 16 16
9 10 11 12 14 16 18 19 14 16 21 19 17 7 2 2 1 2 4 5 10 12 9 8 11 10 9 5 4 7 3 3 4 4 11 14 13 10 3 2 5 2 4 6 3 0 3 6 9 14 16 12 9 11 13 12 9 8 6 8 9 8 12 13 13 13 5 5 9 11 16 18 16 17 16 13 12 14 16 16 18 17 13 11 14 18 18 16
10 10 11 12 14 15 18 19 13 15 20 14 12 7 3 1 1 1 1 3 10 11 10 12 11 11 15 16 12 6 1 4 5 3 11 13 9 7 4 5 6 4 4 4 1 1 3 6 14 18 13 7 5 6 8 9 9 8 5 6 8 6 11 12 11 13 5 4 8 10 14 16 14 15 15 13 14 16 16 16 19 17 12 12 14 16 18 17
10 10 11 11 13 14 17 19 12 14 18 11 10 6 1 3 0 1 2 1 8 6 6 9 9 8 13 18 15 9 6 9 7 5 14 14 5 5 4 6 7 3 5 7 7 6 5 8 16 15 7 5 7 5 5 6 5 6 6 6 8 6 7 9 7 8 4 3 6 9 12 12 10 13 13 14 17 16 16 17 17 15 12 14 17 15 16 18
11 11 11 11 13 13 15 17 11 13 15 7 8 7 5 4 1 1 1 1 5 6 7 9 8 6 10 11 10 13 9 7 5 5 15 16 5 2 4 6 5 3 6 12 13 12 11 8 9 9 8 9 10 8 6 5 7 8 9 8 11 11 11 11 6 6 5 5 5 7 12 11 9 13 14 12 15 15 14 16 15 15 15 15 16 16 17 19
12 12 11 12 12 12 15 15 8 14 12 2 5 9 7 5 1 1 1 2 4 6 6 6 5 6 9 5 8 11 4 4 6 5 14 17 8 4 3 4 4 6 11 12 11 12 12 6 5 6 8 10 11 9 7 7 9 9 8 13 18 16 13 13 9 8 6 6 3 2 9 9 7 12 13 9 9 11 10 12 16 17 16 13 15 18 18 18
13 13 12 12 12 12 13 8 7 14 8 2 5 10 7 6 2 1 1 2 4 5 2 2 3 3 5 4 7 7 1 4 4 4 12 15 10 5 2 3 1 6 8 6 5 5 6 7 7 8 9 10 9 7 8 10 9 10 7 14 17 13 10 10 7 4 3 6 3 3 2 10 5 6 9 8 9 11 10 11 15 16 14 12 13 16 17 16
13 13 13 13 12 11 7 5 10 12 3 1 8 9 8 7 3 1 1 3 5 3 2 1 0 1 2 2 4 7 2 5 2 4 4 5 5 2 2 5 3 3 4 2 3 3 4 6 8 10 8 7 7 8 10 12 8 8 4 9 10 8 8 6 5 5 4 5 4 4 5 8 12 6 10 12 12 12 12 13 16 14 13 13 14 15 16 16
14 14 13 13 12 11 8 8 11 8 3 5 9 7 7 6 2 2 2 3 5 1 2 2 0 1 1 2 1 4 2 2 3 1 3 2 1 1 4 7 5 4 3 5 6 5 4 6 9 10 7 5 8 10 9 12 8 6 3 6 7 6 5 5 5 4 1 5 5 4 6 3 14 8 10 12 12 10 13 17 17 15 14 15 15 15 15 15
16 15 15 14 13 13 11 11 10 6 6 7 7 6 6 3 1 4 3 3 3 1 1 1 0 1 3 1 2 1 2 3 2 3 4 2 0 2 3 5 4 4 3 5 9 6 2 4 7 9 6 8 9 6 8 13 10 4 6 5 4 3 3 5 3 2 3 6 6 5 6 2 13 8 5 4 6 9 13 14 15 14 13 14 14 14 13 12
16 14 17 15 11 12 11 12 14 9 5 6 5 6 5 2 1 3 3 5 1 1 0 1 1 1 3 3 2 4 2 2 1 2 3 1 2 4 1 2 3 2 4 3 7 8 3 0 2 5 5 6 5 2 3 8 6 3 6 5 6 5 5 4 1 4 2 9 6 9 11 6 7 6 4 4 5 8 10 9 10 12 12 13 13 12 12 12
16 14 17 17 14 13 8 8 14 10 4 3 3 5 4 2 3 2 7 3 1 2 0 0 1 2 3 4 1 3 1 2 0 2 0 1 2 4 1 1 2 2 3 5 7 8 5 1 2 3 3 4 5 3 2 2 3 4 4 3 4 4 4 5 4 4 2 9 5 10 12 9 8 6 2 5 6 5 7 9 11 12 12 13 12 11 12 12
17 15 16 18 19 17 12 7 7 5 7 4 3 4 2 2 0 6 6 3 2 3 2 2 1 1 2 2 1 3 2 2 1 4 3 3 2 2 3 4 4 1 4 4 4 5 4 6 6 2 2 5 5 2 3 6 3 4 4 4 1 4 3 3 3 0 4 8 5 7 7 6 10 7 4 9 10 7 9 10 12 12 12 12 11 12 11 8
15 15 16 19 20 20 19 16 10 7 9 6 4 4 4 2 4 6 3 2 2 2 1 2 1 2 4 2 3 4 2 2 3 3 2 3 3 3 4 4 5 2 4 4 2 4 4 6 4 3 3 5 9 6 3 2 4 6 5 6 5 3 2 3 4 3 5 7 5 4 5 5 7 4 8 14 13 10 9 10 12 12 11 11 9 10 10 8
12 13 16 19 21 21 21 20 17 13 10 7 5 4 3 4 5 1 3 5 4 2 1 2 3 2 3 2 4 4 2 4 4 4 2 3 2 3 4 5 5 2 1 1 2 1 4 8 5 8 3 5 12 12 8 5 5 7 5 5 6 6 5 4 4 6 6 5 5 1 5 5 3 3 8 11 8 6 6 8 9 8 8 9 8 9 11 10
11 10 13 17 20 21 21 22 20 16 11 7 4 2 4 7 4 0 3 4 3 4 4 2 3 1 3 3 4 3 5 5 2 4 3 3 3 4 3 5 8 5 3 2 3 3 4 10 6 3 1 8 12 11 7 7 2 3 4 4 4 6 6 4 5 6 3 2 4 3 5 5 4 6 8 7 9 8 5 5 6 7 10 10 9 9 12 10
10 9 9 14 20 21 22 24 21 18 13 6 3 4 7 7 3 3 3 2 1 1 5 5 1 2 4 3 3 4 3 3 1 2 3 3 4 5 5 5 8 11 9 5 4 3 4 8 3 1 2 6 7 6 6 6 4 2 3 4 4 4 7 5 6 1 1 4 6 4 6 6 4 8 7 4 7 8 7 7 7 10 12 10 10 10 11 9
8 8 7 12 18 19 20 24 23 20 12 5 4 7 5 4 4 4 3 1 1 1 2 2 1 1 3 2 2 3 2 2 2 2 2 2 3 4 5 4 6 13 15 9 4 4 6 8 4 5 6 4 1 1 2 1 3 5 4 6 2 3 2 3 2 1 2 8 6 5 12 9 4 8 5 4 5 7 8 9 9 9 10 9 10 10 11 8
8 6 8 13 19 18 18 23 25 18 7 3 8 10 5 3 4 4 2 0 1 1 2 2 2 1 1 3 3 2 1 2 0 0 1 2 3 3 4 3 1 4 10 8 4 3 4 7 6 4 4 2 4 2 3 4 2 5 4 3 3 1 2 3 3 3 6 10 6 8 16 11 6 8 5 5 8 9 9 7 6 7 8 8 9 11 11 8
6 4 6 10 15 17 20 25 23 12 3 4 9 9 4 3 4 4 3 2 2 1 2 5 4 2 3 4 3 1 1 2 0 1 0 1 4 0 2 1 2 4 3 1 2 3 1 3 5 1 1 2 3 0 4 2 1 1 2 2 1 3 4 3 3 3 6 9 8 9 12 9 7 6 5 8 9 8 8 6 6 7 7 7 8 9 10 8
3 3 3 4 8 15 23 23 15 5 4 5 7 6 3 2 4 4 5 4 3 2 3 5 5 5 4 4 4 2 2 3 3 2 2 3 4 3 3 1 2 2 3 4 2 3 2 4 6 3 3 3 1 3 5 5 3 2 3 3 2 2 1 1 2 2 4 8 8 8 9 8 7 3 6 8 7 7 5 4 6 7 7 8 8 8 9 9
3 3 3 3 7 18 23 15 5 4 4 4 6 5 3 2 3 3 4 6 5 3 2 4 5 6 4 3 3 3 2 2 4 4 4 3 4 3 1 2 4 0 3 4 1 2 1 3 5 4 4 5 5 4 5 7 6 5 6 6 7 6 3 4 7 4 3 5 6 7 8 7 6 5 5 5 4 4 3 4 7 7 8 10 9 9 9 9
4 4 2 4 14 25 19 5 3 4 3 4 4 3 2 3 3 4 4 4 5 3 1 3 5 5 4 5 5 5 4 4 5 5 5 6 8 7 5 5 5 3 2 1 1 1 2 1 4 6 6 8 10 7 5 7 6 3 4 5 5 6 6 7 9 5 3 4 3 5 8 5 5 12 11 7 7 7 5 6 8 9 9 10 10 10 11 12
4 3 0 6 22 25 11 3 5 4 4 3 2 2 2 2 3 4 4 4 4 4 2 3 5 6 6 7 7 6 5 5 7 8 7 7 9 12 13 13 11 4 2 2 2 2 3 2 2 5 4 6 10 10 5 3 2 3 4 4 5 5 6 7 6 3 3 5 4 7 10 5 5 14 17 14 14 12 10 10 11 11 11 10 10 12 12 14
2 3 1 9 26 22 6 5 7 5 6 4 3 4 3 2 4 6 6 6 5 5 4 5 6 7 8 7 7 8 7 7 8 10 9 7 7 12 15 17 16 9 4 5 5 4 4 3 2 2 4 6 5 5 5 3 3 3 4 4 5 5 6 5 2 2 4 8 9 10 10 8 7 11 15 19 21 20 19 17 13 12 13 12 11 11 12 12
2 3 2 7 19 14 4 5 6 5 7 8 8 8 6 4 5 9 9 6 5 5 4 4 4 5 7 7 7 8 9 9 8 7 7 6 5 7 10 14 15 11 9 9 7 5 5 5 5 5 7 9 8 6 5 3 2 2 2 5 7 8 10 8 5 6 7 9 12 11 10 11 12 13 17 23 25 25 25 22 13 9 11 12 11 10 10 9
2 3 2 3 7 6 4 4 4 4 5 7 7 7 10 10 6 5 7 6 7 7 4 4 3 3 4 7 8 9 9 10 9 6 5 5 4 3 6 10 12 13 14 11 7 4 2 4 8 13 13 12 12 11 6 5 5 6 8 11 12 12 13 11 9 10 11 12 13 13 14 17 16 15 19 24 25 25 26 23 16 10 10 11 10 10 10 9
2 3 2 1 3 5 6 5 5 6 5 5 4 4 9 12 7 4 6 5 6 7 5 6 7 7 7 8 9 9 9 11 12 11 10 9 6 5 6 5 6 10 11 8 7 5 1 4 10 15 17 15 15 17 16 14 14 16 17 18 18 17 16 14 14 15 14 13 13 14 16 19 17 17 22 25 24 24 24 23 19 14 10 9 9 10 11 12
2 2 2 2 2 4 5 4 4 5 5 5 4 5 10 12 9 6 4 3 4 5 4 4 9 14 13 11 9 8 10 12 11 10 10 7 6 7 7 4 4 6 5 4 6 5 3 6 10 14 17 17 18 20 21 20 18 18 18 20 21 21 20 19 20 20 17 16 17 16 19 21 18 17 21 24 24 23 22 21 20 18 15 12 11 11 10 10
2 2 3 2 1 3 3 2 3 3 3 4 3 5 9 12 12 7 2 1 3 3 7 7 7 8 7 4 2 4 6 6 5 4 2 4 5 4 4 6 4 1 1 2 4 4 3 5 9 14 17 17 18 20 20 21 21 19 19 21 21 21 23 23 23 23 22 23 23 23 26 26 19 16 20 23 23 20 18 18 20 21 21 20 17 12 8 8
1 1 2 2 2 3 2 1 2 3 2 4 5 5 5 7 8 4 1 2 2 2 5 5 3 3 3 2 1 2 2 2 0 3 3 6 6 3 3 4 4 7 7 4 2 3 4 5 9 13 14 15 18 20 20 20 21 21 22 21 20 22 24 24 22 20 21 24 26 27 27 23 16 17 20 21 20 19 19 20 21 22 25 24 19 12 7 6
4 3 3 3 3 3 1 1 1 2 3 4 5 3 3 5 4 2 2 3 4 2 1 2 5 5 3 3 2 1 0 2 2 6 4 4 5 3 3 4 5 9 9 5 3 3 3 3 5 8 9 9 12 16 18 18 19 22 22 21 23 24 22 21 21 21 21 23 23 22 19 15 14 18 21 21 21 21 22 23 22 20 18 15 12 11 11 10
4 5 3 1 4 4 2 2 1 2 4 3 2 2 3 4 2 3 2 3 2 3 5 6 5 5 3 6 5 2 1 3 7 7 6 7 8 8 8 8 9 8 7 6 5 3 4 4 4 6 7 6 8 13 15 15 14 15 17 22 26 26 23 22 21 21 22 20 17 16 15 13 11 12 13 15 15 15 15 14 11 10 11 10 11 11 11 11
Wind_Direction
1 1 359 359 358 358 358 359 0 2 4 4 4 4 2 2 359 0 358 357 357 356 356 351 349 348 336 327 325 317 304 280 269 253 239 258 259 242 237 229 208 193 195 190 177 170 144 166 197 179 154 135 211 232 205 162 105 65 98 153 240 205 212 196 198 207 174 268 264 267 224 187 254 278 252 327 293 259 252 261 259 265 0 58 302 152 151 158
354 353 352 351 349 349 349 349 350 350 352 352 354 353 352 352 349 351 350 350 349 348 351 347 345 343 336 331 327 326 311 287 275 259 259 271 262 241 231 225 212 198 194 193 194 178 147 186 192 145 104 124 257 263 174 232 139 135 133 178 230 205 218 201 202 220 187 255 255 262 244 191 223 238 94 259 266 282 255 262 263 257 268 45 98 139 151 158
349 349 347 345 342 343 343 342 342 341 343 343 344 344 343 343 341 342 342 342 342 343 344 343 343 341 337 329 329 331 310 297 285 265 281 302 264 242 231 223 216 211 212 208 208 194 167 172 170 140 92 244 247 131 116 263 196 181 146 209 242 216 234 243 231 240 230 232 243 267 249 191 236 228 132 234 269 272 237 239 206 235 245 211 145 150 157 161
346 344 341 340 338 338 339 338 337 336 336 336 337 337 335 334 335 335 335 336 335 336 337 339 340 340 336 327 333 327 315 331 287 257 7 17 357 232 219 219 217 217 223 217 213 203 181 155 156 140 102 252 293 58 164 230 208 186 163 208 239 199 233 255 240 242 235 216 211 234 260 260 253 196 187 208 285 275 241 222 206 222 235 201 169 174 169 169
342 339 338 336 335 335 336 335 334 333 332 332 332 331 330 328 328 328 328 328 329 330 332 335 335 338 332 322 336 320 338 16 276 220 30 17 31 153 204 211 214 212 211 209 206 194 188 154 123 103 99 214 289 63 226 226 163 175 216 223 238 186 231 256 239 239 222 207 241 239 267 267 247 175 210 194 236 262 241 201 208 220 231 196 174 181 175 178
337 335 334 332 332 333 333 333 331 329 328 327 327 326 327 325 324 323 321 321 324 324 326 330 331 334 324 319 346 326 340 319 254 235 301 341 357 266 195 201 206 205 202 203 203 187 180 126 105 144 141 209 199 193 241 232 155 227 254 240 245 219 237 262 253 248 202 222 262 251 260 263 325 280 230 202 232 251 238 178 199 220 228 192 165 170 178 189
333 331 330 328 330 330 331 331 327 325 323 322 322 322 322 323 323 319 316 316 316 319 321 325 328 328 316 318 344 18 88 253 269 269 279 296 291 236 192 200 201 203 203 199 199 184 154 116 155 176 134 273 222 210 243 248 169 220 258 259 251 227 233 256 268 281 267 242 248 268 310 267 254 274 281 241 248 251 245 200 201 223 219 167 156 175 188 194
330 329 327 327 328 328 329 327 324 322 318 316 316 317 317 318 319 316 314 311 310 313 314 318 324 325 310 304 13 5 8 255 275 284 277 274 251 215 194 199 199 205 203 205 205 185 155 148 187 174 143 253 206 204 247 320 190 215 239 253 259 242 242 260 274 278 271 252 246 297 287 248 226 264 316 267 264 262 238 223 227 221 194 164 176 192 194 200
328 326 328 329 330 330 329 326 324 319 314 311 309 310 311 311 312 311 310 307 306 305 305 312 315 307 284 283 85 357 273 249 271 280 271 256 237 214 203 202 201 204 202 214 212 186 175 184 211 197 196 230 186 211 233 223 245 217 226 254 273 277 277 279 277 267 263 253 197 245 271 259 225 262 286 264 266 272 222 222 232 209 210 208 200 200 198 205
326 328 331 332 335 335 333 331 326 319 313 309 306 306 305 305 305 303 302 300 300 298 296 300 300 283 250 188 99 274 266 262 266 266 262 244 229 215 209 209 205 205 204 211 203 187 183 194 201 169 174 209 191 222 194 188 227 209 222 269 263 274 283 263 256 265 271 256 193 209 265 273 247 196 265 265 268 242 197 230 238 211 227 229 218 214 205 208
326 331 332 334 338 336 335 333 328 321 315 311 308 306 304 304 303 300 296 292 292 291 284 284 285 264 223 167 157 234 266 273 265 260 254 240 229 223 220 218 212 210 208 204 204 204 207 203 163 116 185 220 202 249 233 206 221 252 294 309 282 292 295 264 253 262 258 260 207 191 258 283 0 186 243 259 270 94 197 253 255 232 241 239 230 227 212 216
327 330 329 332 336 334 334 333 328 321 317 316 310 308 308 306 305 301 296 289 287 285 273 270 269 240 210 173 215 238 257 264 266 264 251 239 230 228 227 224 223 223 218 214 218 215 218 213 156 149 225 203 252 281 243 224 45 302 31 328 292 331 309 276 265 244 188 228 193 153 268 285 216 222 240 252 262 33 291 276 264 247 248 249 240 234 221 227
325 327 325 329 332 332 333 332 328 323 320 318 312 310 308 305 306 302 297 290 287 284 266 261 252 218 189 254 240 242 253 256 260 258 247 237 229 227 224 223 227 230 229 228 226 208 205 205 174 181 214 165 249 261 191 10 20 291 32 339 289 339 304 276 289 166 176 198 177 137 274 273 238 236 244 257 264 289 282 273 268 258 252 252 247 242 235 233
322 324 326 330 330 330 333 332 327 324 323 319 312 308 305 304 302 297 295 287 288 284 262 247 217 185 170 254 259 251 252 250 247 246 242 233 223 223 223 222 225 229 235 238 235 233 192 182 158 155 234 179 246 299 339 356 1 288 304 232 283 305 272 282 71 120 196 209 173 144 231 263 266 255 245 257 253 220 253 264 266 264 259 256 250 247 247 240
325 325 330 332 330 332 336 334 328 327 325 318 312 309 306 304 297 291 286 281 285 273 243 202 179 157 118 270 266 261 249 241 243 244 240 232 219 217 225 220 223 228 231 234 235 236 179 150 130 148 260 256 278 313 326 339 347 354 245 265 270 203 262 299 311 181 214 252 160 152 220 255 269 268 254 255 215 189 232 255 261 266 264 260 257 249 252 253
325 326 331 335 334 338 341 336 333 330 324 317 313 310 308 303 293 284 279 278 280 250 203 176 183 165 102 271 266 260 237 229 245 245 235 230 223 219 217 206 205 197 190 195 173 151 147 133 120 160 195 278 206 142 33 350 317 316 207 242 251 215 257 309 299 230 205 214 179 203 230 253 265 269 270 257 200 192 223 253 257 262 265 262 262 256 253 259
327 331 336 341 343 346 346 342 337 332 326 322 320 315 309 300 287 284 279 270 270 190 162 160 178 167 268 264 276 267 231 228 240 238 222 219 218 214 195 171 159 145 129 113 132 128 114 124 139 148 26 272 170 108 61 281 266 274 205 231 247 229 220 274 293 288 182 176 212 226 231 242 254 265 272 250 192 192 221 252 258 258 266 266 263 263 258 256
329 335 341 346 349 352 351 346 341 339 336 332 331 322 311 301 283 293 198 144 103 107 137 129 139 156 263 243 241 249 218 222 227 217 209 204 202 204 186 153 130 124 104 66 103 118 47 25 101 60 308 254 171 126 186 230 236 234 217 229 253 240 227 239 267 279 159 208 222 226 237 244 255 266 270 264 239 239 244 249 260 262 265 268 265 264 261 256
329 336 342 344 348 350 351 350 348 351 347 343 344 330 320 24 80 78 121 138 111 109 186 223 169 165 253 237 235 241 199 190 192 197 194 183 185 187 170 136 116 116 112 98 261 187 135 55 67 135 234 234 207 178 207 228 231 232 231 230 239 248 242 240 254 247 203 248 237 229 245 246 252 259 262 266 261 260 262 258 261 261 261 264 262 262 261 261
329 335 338 340 344 344 349 353 353 358 353 349 350 345 27 50 43 45 49 182 219 223 225 208 200 226 284 257 209 201 199 178 181 192 180 174 166 158 155 88 85 88 133 157 210 224 148 142 166 201 220 226 213 200 217 233 243 253 258 253 246 253 264 254 262 263 200 227 244 231 246 250 248 254 257 263 265 263 265 263 259 254 252 256 257 258 258 258
324 330 333 336 339 339 348 352 352 358 355 354 1 11 110 43 328 306 318 282 260 257 267 242 220 242 261 251 197 184 180 190 219 198 178 176 154 148 197 128 120 200 185 157 179 232 148 176 208 219 222 224 216 209 224 239 248 256 249 261 264 252 263 258 261 272 216 199 253 242 253 257 249 254 258 260 262 260 260 259 260 255 246 249 254 257 258 257
312 318 325 328 333 336 345 348 347 352 353 6 31 57 120 342 267 252 287 283 281 257 249 252 239 249 254 253 245 208 176 247 247 216 176 172 157 175 203 143 167 200 158 147 188 220 189 211 225 226 225 231 232 205 221 239 238 242 241 262 269 251 270 267 251 265 244 180 258 255 256 260 253 255 257 257 256 254 254 251 256 258 249 246 247 253 259 261
297 305 315 315 325 331 340 345 342 350 356 22 52 65 55 355 115 127 116 248 292 263 227 239 230 230 242 252 245 207 223 236 237 229 179 167 168 194 167 161 187 161 141 185 205 209 214 228 230 228 216 220 244 226 216 260 248 219 221 248 261 247 263 267 245 263 260 199 258 267 265 263 259 262 258 252 252 253 256 254 255 258 249 246 247 249 257 260
286 294 301 304 316 323 335 338 335 352 358 38 55 35 26 16 115 120 26 239 283 272 243 224 209 210 225 243 219 194 221 225 218 229 177 164 149 155 177 175 165 155 196 208 212 225 237 236 222 213 196 203 231 236 215 258 261 221 205 221 250 246 241 253 274 312 297 261 263 277 283 272 237 248 254 247 249 252 255 257 259 257 246 246 254 255 253 255
280 284 289 296 306 314 328 327 323 351 353 88 37 9 17 17 71 127 350 313 285 284 277 229 199 226 226 211 174 180 216 230 224 203 168 170 162 142 204 176 156 212 216 216 225 243 250 233 162 170 194 203 216 229 207 214 254 251 203 211 238 246 246 256 285 325 313 285 279 260 292 285 203 217 244 247 250 252 250 251 253 255 250 245 253 257 252 251
277 280 283 288 294 308 324 318 317 344 352 148 2 357 2 2 354 217 15 354 286 268 289 221 179 209 212 170 156 146 69 268 246 141 160 180 180 149 184 180 197 231 205 206 236 250 247 216 179 180 193 197 202 231 216 196 240 272 217 208 231 244 253 255 268 299 268 267 279 124 263 284 253 203 230 239 240 245 247 248 248 251 252 242 241 251 255 254
271 275 278 281 286 297 311 300 313 334 348 313 347 353 352 354 356 297 15 356 288 224 153 237 87 125 178 180 164 138 174 264 38 81 142 177 196 156 196 201 203 230 167 139 271 241 198 201 204 202 192 181 189 231 220 183 211 268 212 190 210 227 239 221 204 220 236 284 286 149 149 271 279 238 199 215 226 237 247 249 250 249 247 245 242 245 250 254
268 268 268 269 273 276 275 281 301 319 306 330 350 348 348 354 349 60 52 309 278 170 127 263 343 66 10 330 255 137 189 297 74 329 336 70 183 116 222 220 185 207 163 143 240 245 153 186 209 198 185 188 204 223 197 163 200 251 152 154 168 185 202 151 156 209 293 335 290 200 137 257 283 259 180 207 220 225 238 241 246 247 243 245 246 245 247 255
271 269 266 262 261 262 262 264 272 282 298 327 353 338 340 339 327 69 77 260 273 48 52 324 130 327 13 47 272 5 24 7 84 277 334 64 320 76 207 226 160 226 264 179 233 262 155 199 197 169 173 212 219 220 171 165 206 228 116 103 77 85 83 93 129 131 48 307 266 200 151 209 285 283 142 180 214 218 232 236 242 243 242 247 250 253 253 258
265 268 272 265 245 244 247 249 253 260 299 322 337 332 329 301 43 69 238 246 299 311 320 30 271 337 73 112 281 318 344 326 11 349 6 80 348 24 184 229 112 207 286 283 260 257 235 189 148 167 190 203 190 153 163 176 190 124 99 64 32 22 32 55 38 76 54 278 245 182 176 176 275 292 124 168 215 216 221 228 248 251 251 255 255 259 257 252
259 262 269 259 238 234 228 245 261 253 242 288 339 350 338 356 73 161 237 249 10 280 148 351 300 67 95 140 256 296 223 289 0 127 180 147 19 25 41 284 74 67 318 299 280 267 251 230 208 222 184 131 114 103 8 17 100 101 97 73 24 334 8 27 356 56 198 262 233 184 182 176 233 261 191 242 260 229 213 218 233 241 247 253 255 258 255 251
261 260 261 257 248 237 225 243 272 232 206 213 53 39 45 46 231 220 245 348 341 243 167 190 222 131 152 142 262 243 185 264 227 157 178 167 153 178 204 208 167 49 297 251 271 302 270 225 208 228 188 150 134 133 345 356 61 109 116 118 89 302 341 355 313 89 219 257 243 186 176 201 241 247 242 267 271 232 208 217 226 229 235 243 252 256 258 261
263 258 252 253 248 237 236 246 252 225 209 183 88 52 83 127 239 223 234 300 237 218 133 148 141 137 134 109 256 229 168 236 211 172 190 139 158 237 258 230 174 188 263 229 299 329 296 268 183 151 259 183 155 174 230 270 173 159 155 154 168 210 236 256 267 273 260 268 267 177 170 246 277 268 224 237 252 238 209 216 228 229 234 241 253 267 277 280
268 256 247 249 246 243 246 245 238 230 208 156 102 64 102 214 249 202 200 235 259 314 11 98 81 114 149 187 235 202 195 244 181 155 192 117 139 253 259 237 199 173 237 230 308 208 256 285 199 164 228 183 177 203 201 151 162 186 163 146 179 188 175 199 229 250 261 282 301 223 182 223 273 280 227 224 258 273 227 230 244 253 262 267 280 288 284 278
282 263 250 247 243 242 242 234 226 216 188 133 93 122 184 228 246 202 217 232 288 309 305 335 74 127 253 266 262 221 216 245 152 135 180 161 185 213 200 208 197 172 147 209 254 175 219 267 244 172 183 163 183 213 179 117 138 221 125 119 218 202 175 208 238 226 220 295 289 239 218 233 240 262 257 248 266 272 266 282 294 283 270 268 275 272 267 275
293 285 262 238 235 236 232 226 215 196 174 125 100 198 218 229 201 180 221 215 170 327 326 326 55 182 266 274 277 269 230 231 188 151 201 195 205 212 204 208 191 182 181 192 218 199 235 268 273 36 268 186 190 216 175 156 195 182 130 184 219 162 159 217 265 256 112 261 261 229 245 276 303 280 268 250 256 262 279 281 260 258 259 258 265 263 263 281
302 292 257 231 236 235 228 221 202 181 167 136 190 218 224 225 193 185 213 228 180 85 34 318 283 231 265 272 285 296 294 256 198 178 218 215 226 206 199 229 200 191 201 209 230 230 239 267 254 197 227 252 296 329 328 288 145 127 173 210 164 74 130 174 241 327 251 251 259 257 261 272 296 281 301 13 316 283 271 257 247 263 273 267 266 266 270 283
309 283 255 249 248 239 227 213 188 167 149 157 222 233 215 199 212 197 195 217 228 79 94 222 257 311 265 273 295 336 306 276 139 170 249 247 248 171 161 236 235 193 222 231 268 270 232 258 262 207 214 293 16 19 308 331 80 132 209 221 114 148 232 163 178 210 231 244 252 260 268 270 241 248 278 297 287 281 272 270 269 270 269 265 264 269 276 282
300 275 267 259 248 234 217 197 174 159 148 184 224 236 204 192 222 199 181 160 144 137 194 217 228 255 249 244 255 286 250 235 264 332 311 255 266 81 75 299 36 18 325 192 233 299 6 254 262 27 10 325 13 189 212 248 352 58 285 317 71 188 194 182 187 175 217 243 249 249 262 267 244 225 227 243 249 253 265 290 294 274 269 269 269 275 281 279
254 257 263 243 229 210 193 178 162 165 201 203 227 228 180 198 236 225 203 181 166 182 214 214 212 226 238 239 239 234 235 230 219 214 196 234 278 319 4 18 123 323 351 103 178 292 5 260 260 327 339 294 245 212 198 199 204 199 228 244 246 236 180 244 244 156 200 239 246 247 248 257 264 218 197 232 234 216 235 298 304 296 303 295 285 280 280 278
207 242 247 228 197 176 166 160 163 196 205 233 243 229 215 219 218 237 226 207 215 226 180 188 204 212 213 227 224 190 191 217 192 192 208 230 257 262 239 151 144 214 13 74 61 327 346 271 277 289 278 259 250 226 199 211 210 191 206 216 216 223 235 264 251 211 196 235 240 251 253 258 281 266 207 216 233 230 266 301 290 288 289 287 284 277 276 279
218 224 216 199 179 163 152 164 210 191 210 232 235 228 215 207 204 214 219 214 216 213 171 203 212 208 199 219 227 201 196 217 201 204 217 210 212 215 218 209 174 129 57 289 270 257 156 212 281 266 252 258 275 277 221 219 239 239 230 223 223 226 220 236 246 231 222 257 257 265 264 253 273 276 273 267 264 273 287 279 277 278 271 272 276 275 275 271
222 235 260 184 179 165 153 225 207 201 234 231 265 263 195 202 226 219 208 208 201 193 211 218 210 218 221 220 224 214 208 216 208 208 218 218 215 217 224 234 231 202 149 213 224 180 158 145 242 266 281 275 281 291 271 190 186 248 246 219 213 227 225 232 250 256 251 264 269 268 264 251 255 273 280 282 278 278 276 268 271 275 275 274 270 268 268 266
275 280 308 193 185 176 174 224 206 220 227 226 260 248 237 228 219 225 220 200 190 190 204 212 205 220 227 217 217 214 206 217 221 216 217 218 218 222 225 234 240 232 200 198 192 193 204 176 157 237 284 279 283 296 278 232 185 213 237 231 222 233 255 268 298 292 251 242 240 251 261 256 250 264 277 282 281 279 274 268 265 269 276 275 266 260 259 262
304 265 270 206 194 192 218 226 220 227 217 226 237 231 245 248 216 228 233 219 205 193 202 234 221 214 218 213 225 225 209 219 238 226 212 219 243 245 229 229 234 234 232 221 184 175 219 197 172 212 241 251 256 251 234 218 211 219 242 249 237 230 243 255 259 256 251 239 234 241 254 256 253 259 269 274 275 277 275 272 268 262 263 263 258 255 256 256
288 256 255 221 206 217 250 237 230 227 209 225 233 221 229 239 240 223 212 221 233 221 227 256 248 246 227 211 230 241 227 231 240 232 223 230 248 259 228 222 224 228 236 227 175 146 248 205 204 226 232 236 248 248 225 195 215 233 234 234 234 231 235 241 245 247 252 253 246 238 242 252 255 257 263 266 270 275 277 277 279 272 255 251 250 251 255 256
256 262 236 225 226 228 237 238 227 220 212 215 219 220 229 237 251 231 201 217 229 217 230 246 232 233 231 220 232 242 237 235 234 235 241 238 238 264 259 232 226 236 241 225 170 149 230 226 217 230 236 237 245 251 249 243 240 242 240 239 238 237 236 238 244 249 254 261 256 240 239 249 252 251 257 262 265 267 272 279 284 281 264 248 246 252 258 261
248 268 272 283 263 227 234 248 246 236 231 227 225 244 245 239 234 225 220 258 241 201 210 249 230 227 235 242 245 247 243 240 240 242 247 259 283 294 291 276 254 248 240 209 182 169 199 236 230 236 242 240 242 247 250 252 251 246 244 244 243 243 243 243 245 246 246 250 254 252 248 249 247 243 248 256 259 261 268 277 283 284 278 267 259 259 262 268
293 277 289 314 270 256 280 324 331 312 258 250 251 240 245 247 242 231 194 313 286 219 215 236 238 233 252 274 272 283 272 252 257 273 322 351 331 315 313 302 295 342 14 239 216 192 197 225 229 241 251 248 244 245 245 247 251 250 246 244 243 247 248 248 248 248 246 249 254 255 253 251 249 245 246 251 257 263 269 275 279 283 281 276 272 270 267 266
301 273 308 346 280 270 306 303 288 314 287 252 245 228 226 243 249 252 121 186 253 255 223 238 303 355 355 38 101 280 295 98 89 293 345 349 330 339 344 312 328 346 330 300 262 235 224 216 224 241 255 251 246 246 242 239 243 246 246 244 243 246 248 250 253 252 251 252 252 252 254 255 254 253 253 254 259 265 267 268 270 273 275 280 291 308 329 321
281 297 301 305 280 271 303 309 270 289 268 232 228 233 224 229 244 325 334 241 234 252 225 34 11 3 339 317 310 276 71 92 237 248 248 272 280 285 284 274 301 319 312 296 290 274 247 246 251 256 260 249 239 242 244 245 245 246 246 246 244 243 243 245 246 244 246 252 254 255 256 255 251 252 254 255 256 258 261 265 269 276 287 306 334 2 16 11
303 312 300 255 274 270 267 312 311 248 253 244 247 299 263 256 333 28 310 265 165 125 84 55 9 350 334 311 312 330 311 258 250 248 236 230 237 241 240 239 243 257 272 281 287 265 243 271 281 265 265 258 236 239 247 251 249 244 239 237 239 241 243 243 244 246 248 252 256 256 256 263 273 277 277 278 277 275 276 281 293 316 342 9 24 23 19 11